Regional Weather Roundup
Issued by NWS Little Rock, AR

Home | Current Version | Previous Version | Text Only | Print | Product List | Glossary On
Versions: 1 2 3 4 5 6 7 8 9 10 11 12 13 14 15 16 17 18 19 20 21 22 23 24 25 26 27 28 29 30 31 32 33 34 35 36 37 38 39 40 41 42 43 44 45 46
000
ASUS44 KLZK 311505
RWRLZK

WEATHER ROUNDUP FOR ARKANSAS
NATIONAL WEATHER SERVICE LITTLE ROCK AR
1000 AM CDT MON AUG 31 2015

NOTE: "FAIR" INDICATES FEW OR NO CLOUDS BELOW 12,000 FEET WITH NO
SIGNIFICANT WEATHER AND/OR OBSTRUCTIONS TO VISIBILITY.

ARZ001-003-010-029-311600-
NORTHWEST ARKANSAS

CITY           SKY/WX    TMP DP  RH WIND       PRES   REMARKS
FAYETTEVILLE   SUNNY     80  70  71 S9        30.08S
FORT SMITH     SUNNY     78  70  76 E3        30.06R
BENTONVILLE    SUNNY     81  66  61 S12       30.08S
ROGERS         SUNNY     81  68  64 S15       30.09R
SILOAM SPGS    SUNNY     81  66  61 S14       30.06S
HIGHFILL       SUNNY     80  70  71 S10       30.07S
SPRINGDALE     SUNNY     81  68  65 S12       30.10S
$$

ARZ004-005-016-311600-
NORTH CENTRAL ARKANSAS

CITY           SKY/WX    TMP DP  RH WIND       PRES   REMARKS
BATESVILLE     SUNNY     79  72  78 E5        30.09S
FLIPPIN        SUNNY     79  66  65 CALM      30.07S
MTN HOME       SUNNY     78  70  76 SE6       30.09S
$$

ARZ040-041-311600-
WEST CENTRAL ARKANSAS

CITY           SKY/WX    TMP DP  RH WIND       PRES   REMARKS
MENA           PTSUNNY   81  70  69 CALM      30.10R
MOUNT IDA      SUNNY     82  69  64 CALM      30.06S HX  85
$$

ARZ009-017-025-026-028-311600-
NORTHEAST ARKANSAS

CITY           SKY/WX    TMP DP  RH WIND       PRES   REMARKS
JONESBORO      CLOUDY    77  69  76 SE7       30.10S
NEWPORT        SUNNY     79  70  74 S6        30.11R
WALNUT RIDGE   SUNNY     77  68  73 S8        30.10S
BLYTHEVILLE    SUNNY     78  70  76 S7        30.12R
$$

ARZ022-023-033-042-044-311600-
CENTRAL ARKANSAS

CITY           SKY/WX    TMP DP  RH WIND       PRES   REMARKS
LITTLE ROCK    MOSUNNY   80  70  71 CALM      30.08S
N LITTLE ROCK  MOSUNNY   80  73  78 E3        30.08S
JACKSONVILLE   MOSUNNY   77  71  82 VRB3      30.08R
SEARCY         PTSUNNY   77  71  82 VRB3      30.10S
HOT SPRINGS    SUNNY     81  69  67 CALM      30.08R
RUSSELLVILLE   SUNNY     80  70  71 VRB5      30.07R
$$

ARZ036-311600-
EAST ARKANSAS

CITY           SKY/WX    TMP DP  RH WIND       PRES   REMARKS
WEST MEMPHIS   SUNNY     79  70  74 SE5       30.09S
$$

ARZ050-053-066-070-073-311600-
SOUTHWEST ARKANSAS

CITY           SKY/WX    TMP DP  RH WIND       PRES   REMARKS
ARKADELPHIA    FAIR      83  70  64 VRB3      30.07S HX  87
CAMDEN         SUNNY     82  68  61 CALM      30.06S HX  85
TEXARKANA      SUNNY     83  67  58 S3        30.07S HX  85
EL DORADO      MOSUNNY   82  67  60 CALM      30.08S
DE QUEEN       SUNNY     80  70  71 S5        30.05R
$$

ARZ056-057-069-311600-
SOUTHEAST ARKANSAS

CITY           SKY/WX    TMP DP  RH WIND       PRES   REMARKS
PINE BLUFF     SUNNY     79  69  71 CALM      30.07S
STUTTGART      MOSUNNY   79  70  73 S3        30.08S
MONTICELLO     SUNNY     83  69  62 CALM      30.07R HX  86

$$




USA.gov is the U.S. government's official web portal to all federal, state and local government web resources and services.